This is the latest recevied weather packets stored in our database for station/object KS4XQ. If no packets are shown the sender has not sent any weather packets the latest 10 day(s).
| Time | Temp. | Humidity | Pressure | Rain* | Wind** | Luminosity | Snow |
|---|---|---|---|---|---|---|---|
| 1777416902 | 17.22° C | 86% | 1017.4 hPa | 0 mm | - | - | - |
| 1777416002 | 17.78° C | 85% | 1017.6 hPa | 0 mm | - | - | - |
| 1777415703 | 17.78° C | 84% | 1017.8 hPa | 0 mm | - | - | - |
| 1777413303 | 18.33° C | 83% | 1016.9 hPa | 0 mm | - | - | - |
| 1777413004 | 18.33° C | 83% | 1017 hPa | 0 mm | - | - | - |
| 1777411804 | 18.33° C | 83% | 1017 hPa | 0 mm | - | - | - |
| 1777410603 | 17.78° C | 84% | 1017.5 hPa | 0 mm | - | - | - |
| 1777409704 | 18.33° C | 83% | 1017.7 hPa | 0 mm | - | - | - |
| 1777405501 | 17.22° C | 86% | 1019.1 hPa | 0 mm | - | - | - |
| 1777402805 | 15.56° C | 88% | 1020.2 hPa | 0 mm | - | - | - |
| 1777401902 | 16.11° C | 88% | 1020.4 hPa | 0 mm | - | - | - |
| 1777401002 | 16.11° C | 87% | 1020.5 hPa | 0 mm | - | - | - |
| 1777399802 | 16.11° C | 88% | 1020.8 hPa | 0 mm | - | - | - |
| 1777398902 | 16.11° C | 91% | 1020.8 hPa | 0 mm | - | - | - |
| 1777398602 | 16.11° C | 90% | 1020.9 hPa | 0 mm | - | - | - |
| 1777397702 | 15° C | 93% | 1021.3 hPa | 0 mm | - | - | - |
| 1777395002 | 13.89° C | 96% | 1021.4 hPa | 0 mm | - | - | - |
| 1777394404 | 13.89° C | 96% | 1022.3 hPa | 0 mm | - | - | - |
| 1777393802 | 13.33° C | 97% | 1021.6 hPa | 0 mm | - | - | - |
| 1777392602 | 13.33° C | 96% | 1022.1 hPa | 0 mm | - | - | - |
| 1777390801 | 13.33° C | 98% | 1022.9 hPa | 0 mm | - | - | - |
| 1777388405 | 12.78° C | 97% | 1023.8 hPa | 0.25 mm | - | - | - |
| 1777384804 | 11.67° C | 97% | 1023.1 hPa | 2.54 mm | - | - | - |
| 1777383301 | 11.67° C | 96% | 1023.3 hPa | 3.3 mm | - | - | - |
| 1777382703 | 11.67° C | 96% | 1023.8 hPa | 3.3 mm | - | - | - |
* Rain latest hour (hover to see other rain measurements)
** Current wind speed in m/s (hover to see current wind gust speed)